MDT,Max TemperatureF,Mean TemperatureF,Min TemperatureF,Max Dew PointF,MeanDew PointF,Min DewpointF,Max Humidity, Mean Humidity, Min Humidity, Max Sea Level PressureIn, Mean Sea Level PressureIn, Min Sea Level PressureIn, Max VisibilityMiles, Mean VisibilityMiles, Min VisibilityMiles, Max Wind SpeedMPH, Mean Wind SpeedMPH, Max Gust SpeedMPH,PrecipitationIn, CloudCover, Events, WindDirDegrees
2013-9-1,60,52,44,46,43,37,100,76,45,30.81,30.77,30.74,10,8,0,26,9,32,0.00,6,Fog-Rain-Thunderstorm,76
2013-9-2,66,54,42,45,39,32,100,64,30,30.83,30.79,30.75,10,9,0,29,16,34,0.00,4,Fog-Thunderstorm,252
2013-9-3,59,54,48,43,40,37,82,66,45,30.86,30.82,30.79,10,10,4,26,12,30,0.00,4,Rain-Thunderstorm,264
2013-9-4,62,56,50,46,42,36,76,65,51,30.91,30.88,30.84,10,10,5,22,10,32,0.00,6,Rain-Thunderstorm,204
2013-9-5,68,59,50,41,34,30,66,40,24,30.93,30.89,30.84,10,10,10,17,8,22,0.00,2,Thunderstorm,187
2013-9-6,66,56,46,41,36,28,76,51,28,30.89,30.84,30.77,10,10,10,21,11,25,0.00,3,Rain-Thunderstorm,227
2013-9-7,66,58,50,37,34,30,58,46,30,30.81,30.78,30.73,10,10,10,17,8,20,0.00,4,Rain-Thunderstorm,137
2013-9-8,59,52,44,39,36,34,76,61,45,30.75,30.71,30.68,10,10,10,20,13,24,0.00,3,,234
2013-9-9,57,50,42,43,40,32,93,72,38,30.60,30.56,30.53,10,10,0,25,14,34,0.00,6,Rain-Thunderstorm,219
2013-9-10,44,42,41,43,42,37,100,94,76,30.68,30.62,30.57,10,1,0,21,8,22,0.00,8,Fog-Rain-Thunderstorm,83
2013-9-11,46,44,41,45,42,41,100,96,93,30.71,30.68,30.65,10,1,0,18,11,22,0.00,8,Fog-Rain-Thunderstorm,72
2013-9-12,46,44,42,45,42,41,100,95,93,30.75,30.70,30.64,0,0,0,24,11,31,0.00,8,Fog-Rain-Thunderstorm,70
2013-9-13,48,44,39,43,40,37,100,91,71,30.64,30.56,30.50,10,5,0,22,12,29,0.00,7,Fog-Rain-Thunderstorm,218
2013-9-14,48,42,37,41,38,34,100,90,66,30.55,30.50,30.48,10,4,0,32,17,40,0.00,7,Fog-Rain-Thunderstorm,237
2013-9-15,44,40,35,41,37,34,100,92,76,30.69,30.62,30.53,10,4,0,17,9,23,0.00,8,Fog-Rain-Snow-Thunderstorm,128
2013-9-16,51,43,35,43,37,34,100,83,54,30.71,30.68,30.65,10,6,0,24,13,33,0.00,6,Fog-Thunderstorm,239
2013-9-17,53,46,39,41,37,34,93,77,47,30.68,30.60,30.50,10,10,4,26,17,36,0.00,4,Rain-Thunderstorm,234
2013-9-18,51,42,33,43,37,32,100,87,62,30.53,30.49,30.46,10,6,0,34,23,47,0.00,7,Fog-Rain-Snow-Thunderstorm,236
2013-9-19,50,42,33,37,29,14,100,71,35,30.60,30.52,30.46,10,9,0,31,22,39,0.00,4,Fog-Snow-Thunderstorm,255
2013-9-20,53,44,35,28,22,12,70,49,21,30.63,30.60,30.58,10,10,1,30,15,38,0.00,0,,258
2013-9-21,53,46,39,34,30,25,76,58,44,30.61,30.54,30.43,10,10,10,36,24,50,0.00,2,,251
2013-9-22,46,38,30,37,33,28,100,86,66,30.42,30.26,30.06,10,6,0,38,26,41,0.00,6,Fog-Rain-Snow-Thunderstorm,217
2013-9-23,30,29,28,28,28,27,100,96,93,30.05,30.02,29.99,0,0,0,,,,0.00,8,Snow,-1
2013-9-24,48,42,35,30,24,14,75,52,27,30.55,30.51,30.46,10,10,4,28,23,33,0.00,0,,234
2013-9-25,53,43,33,27,23,18,65,48,30,30.45,30.28,30.17,10,10,10,48,29,59,0.00,0,,220
2013-9-26,53,43,33,23,17,10,56,39,19,30.25,30.22,30.18,10,10,10,46,36,55,0.00,0,,217
2013-9-27,37,29,21,32,26,19,100,89,56,30.28,30.18,30.12,10,4,0,48,39,60,0.00,6,Fog-Snow,220
2013-9-28,37,27,17,28,20,14,93,80,52,30.59,30.46,30.27,10,8,0,,,,0.00,3,Fog,-1
2013-9-29,44,36,28,25,18,12,80,54,29,30.58,30.52,30.48,10,10,10,50,33,59,0.00,0,,260
2013-9-30,51,42,32,30,20,14,55,43,34,30.51,30.48,30.45,10,10,10,47,35,59,0.00,0,,262